Alexandria, LA

12:38 AM CDT on May 30, 2017 (GMT -0500)
Alexandria International

Weather History for KAEX - January, 2014

Change the Weather History Date:

Wednesday, January 29, 2014

  Actual Average Record
Temperature  
Mean Temperature 27 °F 49 °F  
Max Temperature 35 °F 60 °F 84 °F (1957)
Min Temperature 19 °F 38 °F 12 °F (1905)
Degree Days  
Heating Degree Days 38 16  
Month to date heating degree days 641 464  
Since 1 July heating degree days 1526 1253  
Moisture  
Dew Point 11 °F    
Average Humidity 60    
Maximum Humidity 84    
Minimum Humidity 35    
Precipitation  
Precipitation 0.00 in 0.20 in 2.62 in (1939)
Month to date precipitation 1.72 4.79  
Year to date precipitation 1.72 4.79  
Snow  
Snow 0.00 in - T in (1951)
Month to date snowfall 4.5  
Since 1 July snowfall 4.5  
Snow Depth 0.00 in    
Sea Level Pressure  
Sea Level Pressure 30.45 in    
Wind  
Wind Speed 3 mph (East)    
Max Wind Speed 9 mph    
Max Gust Speed 11 mph    
Visibility 10 miles    
Events      
T = Trace of Precipitation, MM = Missing Value Source: NWS Daily Summary

Daily Weather History Graph

Daily Weather History Graph

Search for Another Location

Airport or City:

Trip Planner

Search our weather history database for the weather conditions in past years. The results will help you decide how hot, cold, wet, or windy it might be!

Date:

Astronomy

Jan. 29, 2014 Rise Set
Actual Time 7:04 AM CST 5:42 PM CST
Civil Twilight 6:38 AM CST 6:08 PM CST
Nautical Twilight 6:09 AM CST 6:37 PM CST
Astronomical Twilight 5:40 AM CST 7:06 PM CST
Moon 5:40 AM CST (1/29) 4:42 PM CST (1/29)
Length of Visible Light 11h 29m
Length of Day
10h 38m
Waning Crescent, 2% of the Moon is Illuminated
Jan 29
Waning Crescent
Jan 30
New
Feb 6
First Quarter
Feb 14
Full
Feb 22
Last Quarter

Hourly Weather History & Observations

Time (CST) Temp. Windchill Dew Point Humidity Pressure Visibility Wind Dir Wind Speed Gust Speed Precip Events Conditions
12:53 AM 23.0 °F - 15.1 °F 72% 30.46 in 10.0 mi Calm Calm - N/A   Clear
1:53 AM 21.9 °F 17.2 °F 14.0 °F 72% 30.45 in 10.0 mi NNE 3.5 mph - N/A   Clear
2:53 AM 21.0 °F 16.2 °F 12.0 °F 68% 30.45 in 10.0 mi NNE 3.5 mph - N/A   Clear
3:53 AM 19.9 °F 14.9 °F 12.0 °F 71% 30.45 in 10.0 mi North 3.5 mph - N/A   Clear
4:53 AM 21.0 °F 14.6 °F 10.9 °F 65% 30.43 in 10.0 mi North 4.6 mph - N/A   Clear
5:53 AM 19.9 °F - 10.9 °F 68% 30.47 in 10.0 mi Calm Calm - N/A   Clear
6:53 AM 19.0 °F - 12.9 °F 77% 30.49 in 10.0 mi Calm Calm - N/A   Clear
7:53 AM 19.9 °F - 15.1 °F 81% 30.51 in 10.0 mi Calm Calm - N/A   Clear
8:53 AM 23.0 °F 18.4 °F 8.1 °F 53% 30.50 in 10.0 mi NNE 3.5 mph - N/A   Clear
9:53 AM 25.0 °F 20.7 °F 10.0 °F 53% 30.54 in 10.0 mi SE 3.5 mph - N/A   Clear
10:53 AM 28.0 °F 20.8 °F 8.1 °F 43% 30.54 in 10.0 mi East 6.9 mph - N/A   Clear
11:53 AM 30.0 °F 24.1 °F 10.9 °F 45% 30.52 in 10.0 mi SE 5.8 mph - N/A   Clear
12:53 PM 30.9 °F 27.5 °F 9.0 °F 40% 30.48 in 10.0 mi ESE 3.5 mph - N/A   Clear
1:53 PM 32.0 °F 27.5 °F 9.0 °F 38% 30.45 in 10.0 mi East 4.6 mph - N/A   Clear
2:53 PM 33.1 °F 30.0 °F 8.1 °F 35% 30.43 in 10.0 mi South 3.5 mph - N/A   Clear
3:53 PM 34.0 °F 31.0 °F 9.0 °F 35% 30.42 in 10.0 mi SSE 3.5 mph - N/A   Clear
4:53 PM 33.1 °F 27.7 °F 10.9 °F 40% 30.40 in 10.0 mi SE 5.8 mph - N/A   Clear
5:53 PM 30.0 °F 26.5 °F 12.0 °F 47% 30.42 in 10.0 mi SE 3.5 mph - N/A   Clear
6:53 PM 30.0 °F 26.5 °F 9.0 °F 41% 30.42 in 10.0 mi SSE 3.5 mph - N/A   Clear
7:53 PM 26.1 °F 20.5 °F 12.9 °F 58% 30.43 in 10.0 mi ESE 4.6 mph - N/A   Clear
8:53 PM 25.0 °F 20.7 °F 12.0 °F 58% 30.41 in 10.0 mi ESE 3.5 mph - N/A   Clear
9:53 PM 25.0 °F - 12.0 °F 58% 30.39 in 10.0 mi Calm Calm - N/A   Clear
10:53 PM 19.9 °F 10.1 °F 15.1 °F 81% 30.37 in 10.0 mi NW 8.1 mph - N/A   Clear
11:53 PM 21.9 °F - 14.0 °F 72% 30.36 in 10.0 mi Calm Calm - N/A   Clear